Hourly Data Report for October 28, 2016

All times are specified in Local Standard Time (LST). Add 1 hour to adjust for Daylight Saving Time where and when it is observed.

CHARLOTTETOWN A
PRINCE EDWARD ISLAND

46°17'21.000" N
63°07'09.000" W
48.50 m
8300301
71706
YYG

Download Data

Hourly Data (October 2016)
Hourly Data Report for October 28, 2016
Temp Definition
°C
Dew Point Temp Definition
°C
Rel Hum Definition
%
Wind Dir Definition
10's deg

Wind Spd Definition
km/h
Visibility Definition
km
Stn Press Definition
kPa
Hmdx Definition


Wind Chill Definition


Weather Definition


TIME
00:00 Legend Double Dagger 1.7 -0.6 85 36 3 24.1 102.75     LegendNANA
01:00 Legend Double Dagger 1.5 -1.6 80 36 2 24.1 102.73     LegendNANA
02:00 Legend Double Dagger -0.4 -2.6 85 36 3 24.1 102.72   -1 Mostly Cloudy
03:00 Legend Double Dagger -1.6 -3.2 89 33 5 24.1 102.68   -3 LegendNANA
04:00 Legend Double Dagger -2.2 -3.3 92 36 3 24.1 102.64   -3 LegendNANA
05:00 Legend Double Dagger -2.2 -3.0 94 6 6 24.1 102.58   -5 Mainly Clear
06:00 Legend Double Dagger -2.4 -3.4 93 7 5 24.1 102.53   -4 LegendNANA
07:00 Legend Double Dagger -1.9 -3.5 89 0 1 24.1 102.58   -2 LegendNANA
08:00 Legend Double Dagger -0.1 -1.9 88 0 1 24.1 102.62   0 Mostly Cloudy
09:00 Legend Double Dagger 3.5 0.6 81 10 10 24.1 102.57     LegendNANA
10:00 Legend Double Dagger 4.8 1.1 77 14 23 24.1 102.51     LegendNANA
11:00 Legend Double Dagger 6.2 -0.1 64 13 20 24.1 102.44     Mostly Cloudy
12:00 Legend Double Dagger 6.1 -0.4 63 13 21 24.1 102.35     LegendNANA
13:00 Legend Double Dagger 6.2 -0.5 62 11 18 24.1 102.20     LegendNANA
14:00 Legend Double Dagger 6.1 -1.1 60 11 24 24.1 102.13     Mostly Cloudy
15:00 Legend Double Dagger 6.1 -0.6 62 11 14 24.1 102.04     LegendNANA
16:00 Legend Double Dagger 6.3 0.4 66 13 18 24.1 101.98     LegendNANA
17:00 Legend Double Dagger 6.2 1.4 71 11 15 24.1 101.91     Cloudy
18:00 Legend Double Dagger 6.4 2.3 75 12 19 24.1 101.83     LegendNANA
19:00 Legend Double Dagger 5.7 3.4 85 13 16 16.1 101.77     Rain
20:00 Legend Double Dagger 5.4 3.9 90 10 16 16.1 101.71     Rain
21:00 Legend Double Dagger 5.6 4.4 92 10 16 16.1 101.65     Rain
22:00 Legend Double Dagger 5.9 4.9 93 10 20 12.9 101.56     Rain
23:00 Legend Double Dagger 6.0 5.1 94 8 16 12.9 101.44     Rain

Notes on Data Quality.

Legend

  • E = Estimated
  • M = Missing
  • NA = Not Available
  • ‡ = Partner data that is not subject to review by the National Climate Archives
Date modified: